Regional Weather Roundup
Issued by NWS Charleston, SC

Current Version | Previous Version | Graphics & Text | Print | Product List | Glossary On
Versions: 1 2 3 4 5 6 7 8 9 10 11 12 13 14 15 16 17 18 19 20 21 22 23 24 25 26 27 28 29 30 31 32 33 34 35 36 37 38 39 40 41 42 43 44 45 46 47 48 49 50
000
ASUS42 KCHS 170627
RWRCHS

Regional Weather Roundup
National Weather Service Charleston SC
100 AM EST WED JAN 17 2018

NOTE: "fair" indicates few or no clouds below 12,000 feet with no
significant weather and/or obstructions to visibility.

Not all stations are quality controlled. Use data with caution,
especially dewpoint observations.

SCZ027-030-031-034>040-042>050-170700-
...Southeast South Carolina...

CITY           SKY/WX    TMP DP  RH WIND       PRES   REMARKS
N Charleston   MOCLDY    39  34  82 CALM      30.29F
6HR MIN TEMP:  36; 6HR MAX TEMP:  46;

Waterfront Prk NOT AVBL
Mount Pleasant FAIR      34  34 100 CALM      30.29F
Johns Island   FAIR      36  34  93 CALM      30.29F
Pinopolis        N/A     39  36  87 CALM      30.22F
Moncks Corner  FAIR      34  32  93 CALM      30.28F
Summerville    FAIR      34  32  93 CALM      30.29F
Beaufort MCAS  FAIR      37  35  92 CALM      30.29F
6HR MIN TEMP:  36; 6HR MAX TEMP:  45;

Beaufort Arpt  FAIR      37  36  93 CALM      30.28F
Hilton Head Is FAIR      39  36  87 CALM      30.29F
Walterboro     FAIR      34  32  93 CALM      30.29F
Allendale      CLOUDY    37  36  93 CALM      30.28S

...Southern Midlands and Pee Dee...

CITY           SKY/WX    TMP DP  RH WIND       PRES   REMARKS
Georgetown     FAIR      32  32 100 CALM      30.30F
Kingstree      FAIR      32  32 100 CALM      30.29F
Orangeburg     CLOUDY    37  32  82 CALM      30.28F
6HR MIN TEMP:  36; 6HR MAX TEMP:  43;

Barnwell         N/A     43  39  87 CALM      30.28S
Aiken          CLOUDY    43  32  65 S5        30.29F
Manning        FAIR      34  30  86 MISG      30.28F
Columbia       CLOUDY    41  36  82 CALM      30.27F
6HR MIN TEMP:  40; 6HR MAX TEMP:  46;

Sumter         FAIR      38  29  69 CALM      30.25F
6HR MIN TEMP:  35; 6HR MAX TEMP:  44;

Florence       FAIR      34  30  85 S3        30.29F
6HR MIN TEMP:  34; 6HR MAX TEMP:  43;

Myrtle Beach   FAIR      33  30  88 CALM      30.31S
N Myrtle Beach FAIR      34  32  92 CALM      30.29F
6HR MIN TEMP:  32; 6HR MAX TEMP:  39;


$$

GAZ063-065-086>088-099>101-113>116-118-119-134>141-150-170700-
...Southeast Georgia...

CITY           SKY/WX    TMP DP  RH WIND       PRES   REMARKS
Savannah Arpt  FAIR      38  35  89 CALM      30.29F
6HR MIN TEMP:  37; 6HR MAX TEMP:  46;

Hunter AAF     FAIR      39  35  87 CALM      30.26F
6HR MIN TEMP:  38; 6HR MAX TEMP:  44;

Fort Stewart   FAIR      36  33  89 CALM      30.27F
6HR MIN TEMP:  35; 6HR MAX TEMP:  47;

Statesboro     CLOUDY    39  35  86 CALM      30.29S
Sylvania       CLOUDY    38  37  97 CALM      30.30R
Claxton        CLOUDY    38  37  95 CALM      30.29S

...CSRA, Central and far Southeast Georgia...

CITY           SKY/WX    TMP DP  RH WIND       PRES   REMARKS
Thomson        CLOUDY    43  33  69 N13       30.34R
Augusta-Bush   CLOUDY    43  38  82 CALM      30.27F
6HR MIN TEMP:  42; 6HR MAX TEMP:  48;

Augusta-Daniel CLOUDY    48  33  56 CALM      30.28S
Swainsboro     CLOUDY    45  37  76 NW6       30.29S
Vidalia        CLOUDY    45  41  87 SW3       30.28F
Eastman        CLOUDY    47  31  53 CALM      30.32S
Hazlehurst     MOCLDY    42  39  92 CALM      30.27F
Alma           FAIR      38  37  97 CALM      30.29F
6HR MIN TEMP:  38; 6HR MAX TEMP:  46;

Waycross       FAIR      40  38  91 CALM      30.28F
Jesup          FAIR      37  36  93 CALM      30.29F
Baxley         FAIR      36  36 100 CALM      30.29S
Brunswick      FAIR      36  34  93 CALM      30.29F FOG
Saint Simons   FAIR      40  40 100 CALM      30.28F
6HR MIN TEMP:  40; 6HR MAX TEMP:  45;


$$

SCZ027-028-034-036>038-045-046-048>050-GAZ119-141-170700-
...Lake and Supplemental Coastal Observations...

STATION/POSITION TIME  TEMP    WIND        PRES    WAVE   SWELL
                       AIR SEA DIR/SP/G            HT/PER HT/PER/DIR
                 (UTC) (F)     (DEG/KT/KT) (MB)    (FT/S) (FT/S/D)
Winyah Bay       0530   35     320/  1     1026.0F
Lake Murray      0550   47     170/  4/  6 1024.0F
ACE Basin NERRS  0545   36        CALM     1026.0S
Fort Pulaski     0600   44 46  320/  2/  2 1025.7
Sapelo Island    0600   42        CALM     1025.0

$$

ANZ835-935-AMZ111-154-330-350-352-354-370-450-454-472-170700-
...C-MAN and Buoy Observations...

STATION/POSITION TIME  TEMP    WIND        PRES    WAVE   SWELL
                       AIR SEA DIR/SP/G            HT/PER HT/PER/DIR
                 (UTC) (F)     (DEG/KT/KT) (MB)    (FT/S) (FT/S/D)
Buoy 41004       0610   57 69  110/  4/  6 1025.1
Buoy 41008       0550   52 52   30/  2/  2 1025.4F   3/11   3/ 70/11
Folly Beach CMAN 0600   44     340/  3/  3 1025.9F
Capers Nearshore 0608   43 48   50/  4/  6 1025.3F
Fripp Nearshore  0608   44 45  320/  2/  6 1024.8F


STATION/POSITION TIME  TEMP    WIND        PRES    WAVE   SWELL
                       AIR SEA DIR/SP/G            HT/PER HT/PER/DIR
                 (UTC) (F)     (DEG/KT/KT) (MB)    (FT/S) (FT/S/D)
5E St. Marys GA  0600      50                N/A     3/11   2/100/11
Frying Pan Buoy  0610   51 60   30/  6/  8 1025.3
Buoy 41025       0610   52 69  340/  8/ 12 1025.5
Cape Lookout NC  0600          340/  4/  4 1025.5F
Buoy 41002       0550   68 70  110/ 12/ 16 1022.8F   8/10   7/ 50/10
Buoy 41010       NOT AVBL
St Augustine FL  0600   49 51  350/  5/  6 1025.5F


$$




USA.gov is the U.S. government's official web portal to all federal, state and local government web resources and services.